Location: Mainz-Finthen
(49.9906°N, 8.1713°E)
Time: 08:21:36
(UTC+00:00)

Envisat - Pass Details

Date: 29 September 2021
Orbit: 764 x 766 km, 98.2° (Epoch: 22 October)

Event Time Altitude Azimuth Distance (km) Brightness Sun altitude
Rises 04:46:14 0° 14° (NNE) 3,244 6.5 -7.0°
Reaches altitude 10° 04:48:33 10° 15° (NNE) 2,313 5.8 -6.6°
Maximum altitude 04:53:40 84° 104° (ESE) 776 3.1 -5.8°
Drops below altitude 10° 04:58:44 10° 193° (SSW) 2,295 5.3 -5.0°
Sets 05:01:02 0° 194° (SSW) 3,217 6.1 -4.6°
